| time (UTC) | temp F | wind direction | speed knots | gust knots | rain 1hr in | rain 24hr in | rain mn in | humidity % | barometer mb |
| 20260505082543 | 57 | 169 | 4.3 | 7.8 | 0.00 | 0.00 | 0.00 | 53 | 1003.9 |
| 20260505082043 | 57 | 182 | 4.3 | 8.7 | 0.00 | 0.00 | 0.00 | 53 | 1003.8 |
| 20260505081543 | 57 | 215 | 2.6 | 8.7 | 0.00 | 0.00 | 0.00 | 53 | 1004.1 |
| 20260505081043 | 57 | 186 | 1.7 | 7.0 | 0.00 | 0.00 | 0.00 | 53 | 1004.1 |
| 20260505080545 | 57 | 211 | 2.6 | 6.1 | 0.00 | 0.00 | 0.00 | 53 | 1004.2 |
| 20260505080044 | 57 | 210 | 2.6 | 6.1 | 0.00 | 0.00 | 0.00 | 55 | 1004.3 |
| 20260505075545 | 57 | 209 | 1.7 | 4.3 | 0.00 | 0.00 | 0.00 | 56 | 1004.4 |
| 20260505075042 | 57 | 173 | 1.7 | 5.2 | 0.00 | 0.00 | 0.00 | 56 | 1004.6 |
| 20260505074541 | 57 | 50 | 0.0 | 8.7 | 0.00 | 0.00 | 0.00 | 56 | 1004.6 |
| 20260505074039 | 57 | 5 | 0.9 | 8.7 | 0.00 | 0.00 | 0.00 | 55 | 1004.6 |
| 20260505073539 | 57 | 253 | 1.7 | 9.6 | 0.00 | 0.00 | 0.00 | 55 | 1004.5 |
| 20260505073043 | 57 | 205 | 5.2 | 12.2 | 0.00 | 0.00 | 0.00 | 55 | 1004.4 |
| 20260505072640 | 57 | 244 | 3.5 | 12.2 | 0.00 | 0.00 | 0.00 | 55 | 1004.3 |
| 20260505072038 | 58 | 229 | 6.1 | 13.9 | 0.00 | 0.00 | 0.00 | 51 | 1004.4 |
| 20260505071536 | 58 | 217 | 7.8 | 13.9 | 0.00 | 0.00 | 0.00 | 50 | 1004.2 |
| 20260505071035 | 58 | 217 | 7.0 | 16.5 | 0.00 | 0.00 | 0.00 | 50 | 1004.0 |
| 20260505070536 | 58 | 194 | 7.8 | 16.5 | 0.00 | 0.00 | 0.00 | 50 | 1004.0 |
| 20260505070041 | 58 | 180 | 9.6 | 13.9 | 0.00 | 0.00 | 0.00 | 49 | 1003.9 |
| 20260505065535 | 58 | 182 | 7.8 | 15.6 | 0.00 | 0.00 | 0.00 | 50 | 1003.8 |
| 20260505065034 | 58 | 145 | 7.8 | 18.2 | 0.00 | 0.00 | 0.00 | 49 | 1003.8 |
| 20260505064535 | 58 | 190 | 8.7 | 18.2 | 0.00 | 0.00 | 0.00 | 49 | 1003.8 |
| 20260505064032 | 58 | 178 | 7.0 | 18.2 | 0.00 | 0.00 | 0.00 | 50 | 1003.8 |
| 20260505063532 | 58 | 215 | 11.3 | 19.1 | 0.00 | 0.00 | 0.00 | 49 | 1003.8 |
| 20260505063031 | 58 | 182 | 6.1 | 19.1 | 0.00 | 0.00 | 0.00 | 50 | 1003.9 |
| 20260505062532 | 58 | 201 | 8.7 | 20.0 | 0.00 | 0.00 | 0.00 | 51 | 1003.8 |
| 20260505062029 | 58 | 162 | 8.7 | 19.1 | 0.00 | 0.00 | 0.00 | 49 | 1003.8 |
| 20260505061538 | 58 | 159 | 8.7 | 14.8 | 0.00 | 0.00 | 0.00 | 49 | 1003.9 |
| 20260505061027 | 58 | 186 | 7.8 | 13.9 | 0.00 | 0.00 | 0.00 | 49 | 1003.9 |
| 20260505060527 | 58 | 208 | 8.7 | 14.8 | 0.00 | 0.00 | 0.00 | 49 | 1004.1 |
| 20260505060026 | 58 | 223 | 7.0 | 14.8 | 0.00 | 0.00 | 0.00 | 49 | 1004.0 |
| 20260505055525 | 58 | 171 | 6.1 | 15.6 | 0.00 | 0.00 | 0.00 | 49 | 1004.0 |
| 20260505055026 | 58 | 177 | 9.6 | 15.6 | 0.00 | 0.00 | 0.00 | 49 | 1004.1 |
| 20260505054533 | 58 | 163 | 8.7 | 15.6 | 0.00 | 0.00 | 0.00 | 48 | 1004.0 |
| 20260505054025 | 58 | 201 | 7.0 | 15.6 | 0.00 | 0.00 | 0.00 | 48 | 1004.1 |
| 20260505053527 | 59 | 177 | 7.0 | 18.2 | 0.00 | 0.00 | 0.00 | 47 | 1004.1 |
| 20260505053023 | 59 | 152 | 9.6 | 18.2 | 0.00 | 0.00 | 0.00 | 47 | 1004.2 |
| 20260505052521 | 59 | 173 | 8.7 | 20.9 | 0.00 | 0.00 | 0.00 | 47 | 1004.1 |
| 20260505052020 | 59 | 202 | 7.0 | 22.6 | 0.00 | 0.00 | 0.00 | 46 | 1004.1 |
| 20260505051521 | 59 | 209 | 10.4 | 22.6 | 0.00 | 0.00 | 0.00 | 46 | 1004.2 |
| 20260505051019 | 59 | 166 | 7.0 | 17.4 | 0.00 | 0.00 | 0.00 | 46 | 1004.3 |
| 20260505050521 | 59 | 192 | 7.0 | 15.6 | 0.00 | 0.00 | 0.00 | 47 | 1004.3 |
| 20260505041517 | 59 | 185 | 5.2 | 13.0 | 0.00 | 0.00 | 0.00 | 46 | 1004.3 |
| 20260505041008 | 59 | 198 | 7.0 | 13.9 | 0.00 | 0.00 | 0.00 | 46 | 1004.2 |
| 20260505040507 | 59 | 182 | 6.1 | 13.9 | 0.00 | 0.00 | 0.00 | 46 | 1004.3 |
| 20260505040007 | 59 | 167 | 6.1 | 12.2 | 0.00 | 0.00 | 0.00 | 46 | 1004.3 |
| 20260505035511 | 59 | 177 | 7.0 | 12.2 | 0.00 | 0.00 | 0.00 | 45 | 1004.3 |
| 20260505035006 | 59 | 211 | 6.1 | 14.8 | 0.00 | 0.00 | 0.00 | 45 | 1004.2 |
| 20260505034505 | 59 | 191 | 6.1 | 14.8 | 0.00 | 0.00 | 0.00 | 45 | 1004.1 |
| 20260505034005 | 59 | 168 | 7.0 | 13.9 | 0.00 | 0.00 | 0.00 | 44 | 1004.1 |
| 20260505033506 | 59 | 155 | 5.2 | 13.9 | 0.00 | 0.00 | 0.00 | 44 | 1004.1 |
| 20260505033005 | 59 | 131 | 6.1 | 13.0 | 0.00 | 0.00 | 0.00 | 44 | 1004.1 |
| 20260505032505 | 59 | 195 | 3.5 | 12.2 | 0.00 | 0.00 | 0.00 | 44 | 1004.3 |
| 20260505032006 | 59 | 174 | 6.1 | 13.0 | 0.00 | 0.00 | 0.00 | 44 | 1004.3 |
| 20260505031507 | 59 | 188 | 7.0 | 12.2 | 0.00 | 0.00 | 0.00 | 43 | 1004.3 |
| 20260505031007 | 60 | 148 | 6.1 | 10.4 | 0.00 | 0.00 | 0.00 | 43 | 1004.3 |
| 20260505030503 | 60 | 192 | 5.2 | 12.2 | 0.00 | 0.00 | 0.00 | 42 | 1004.3 |
| 20260505030003 | 60 | 177 | 7.0 | 15.6 | 0.00 | 0.00 | 0.00 | 42 | 1004.3 |
| 20260505025504 | 61 | 133 | 6.1 | 15.6 | 0.00 | 0.00 | 0.00 | 41 | 1004.4 |
| 20260505025004 | 61 | 202 | 7.0 | 12.2 | 0.00 | 0.00 | 0.00 | 41 | 1004.4 |
| 20260505024504 | 61 | 187 | 6.1 | 12.2 | 0.00 | 0.00 | 0.00 | 41 | 1004.4 |
| 20260505024003 | 61 | 151 | 5.2 | 12.2 | 0.00 | 0.00 | 0.00 | 41 | 1004.4 |
| 20260505023503 | 61 | 186 | 5.2 | 9.6 | 0.00 | 0.00 | 0.00 | 41 | 1004.6 |
| 20260505023008 | 61 | 181 | 4.3 | 9.6 | 0.00 | 0.00 | 0.00 | 40 | 1004.5 |
| 20260505022502 | 61 | 182 | 5.2 | 11.3 | 0.00 | 0.00 | 0.00 | 40 | 1004.6 |
| 20260505022003 | 61 | 186 | 4.3 | 9.6 | 0.00 | 0.00 | 0.00 | 40 | 1004.6 |
| 20260505021502 | 61 | 176 | 4.3 | 9.6 | 0.00 | 0.00 | 0.00 | 40 | 1004.5 |
| 20260505021001 | 61 | 139 | 4.3 | 7.8 | 0.00 | 0.00 | 0.00 | 39 | 1004.7 |
| 20260505020501 | 61 | 175 | 3.5 | 7.0 | 0.00 | 0.00 | 0.00 | 40 | 1004.6 |
| 20260505020002 | 61 | 174 | 3.5 | 9.6 | 0.00 | 0.00 | 0.00 | 40 | 1004.7 |
| 20260505015502 | 61 | 163 | 4.3 | 9.6 | 0.00 | 0.00 | 0.00 | 39 | 1004.8 |
| 20260505015100 | 61 | 165 | 4.3 | 8.7 | 0.00 | 0.00 | 0.00 | 39 | 1004.8 |
| 20260505014610 | 61 | 164 | 3.5 | 9.6 | 0.00 | 0.00 | 0.00 | 39 | 1004.8 |
| 20260505014100 | 61 | 136 | 2.6 | 9.6 | 0.00 | 0.00 | 0.00 | 38 | 1004.8 |
| 20260505013559 | 61 | 187 | 3.5 | 7.8 | 0.00 | 0.00 | 0.00 | 38 | 1004.7 |
| 20260505013059 | 61 | 187 | 3.5 | 7.8 | 0.00 | 0.00 | 0.00 | 38 | 1004.8 |
| 20260505013001 | 61 | 155 | 3.5 | 6.1 | 0.00 | 0.00 | 0.00 | 38 | 1004.8 |
| 20260505012600 | 61 | 156 | 2.6 | 7.0 | 0.00 | 0.00 | 0.00 | 38 | 1004.8 |
| 20260505012058 | 61 | 165 | 1.7 | 5.2 | 0.00 | 0.00 | 0.00 | 39 | 1004.8 |
| 20260505011606 | 61 | 167 | 2.6 | 4.3 | 0.00 | 0.00 | 0.00 | 38 | 1004.7 |
| 20260505011057 | 61 | 155 | 2.6 | 5.2 | 0.00 | 0.00 | 0.00 | 38 | 1004.8 |
| 20260505010557 | 61 | 151 | 2.6 | 4.3 | 0.00 | 0.00 | 0.00 | 38 | 1004.7 |
| 20260505010057 | 61 | 142 | 2.6 | 7.0 | 0.00 | 0.00 | 0.00 | 38 | 1004.7 |
| 20260505005557 | 61 | 158 | 2.6 | 7.8 | 0.00 | 0.00 | 0.00 | 38 | 1004.5 |
| 20260505005059 | 61 | 150 | 1.7 | 5.2 | 0.00 | 0.00 | 0.00 | 38 | 1004.5 |
| 20260505004557 | 61 | 178 | 1.7 | 4.3 | 0.00 | 0.00 | 0.00 | 38 | 1004.5 |
| 20260505004057 | 62 | 142 | 1.7 | 5.2 | 0.00 | 0.00 | 0.00 | 37 | 1004.5 |
| 20260505003557 | 62 | 123 | 1.7 | 4.3 | 0.00 | 0.00 | 0.00 | 38 | 1004.6 |
| 20260505003056 | 62 | 169 | 1.7 | 4.3 | 0.00 | 0.00 | 0.00 | 37 | 1004.5 |
| 20260505002556 | 62 | 182 | 1.7 | 5.2 | 0.00 | 0.00 | 0.00 | 37 | 1004.5 |
| 20260505002056 | 62 | 191 | 2.6 | 5.2 | 0.00 | 0.00 | 0.00 | 37 | 1004.4 |
| 20260505001557 | 62 | 181 | 1.7 | 5.2 | 0.00 | 0.00 | 0.00 | 36 | 1004.3 |
| 20260505001055 | 63 | 148 | 1.7 | 5.2 | 0.00 | 0.00 | 0.00 | 36 | 1004.2 |
| 20260505000555 | 63 | 157 | 2.6 | 5.2 | 0.00 | 0.00 | 0.00 | 35 | 1004.0 |
| 20260505000114 | 64 | 170 | 1.7 | 7.0 | 0.00 | 0.00 | 0.00 | 35 | 1004.1 |
| 20260504235557 | 64 | 163 | 1.7 | 5.2 | 0.00 | 0.00 | 0.00 | 34 | 1004.1 |
| 20260504235055 | 64 | 163 | 0.9 | 5.2 | 0.00 | 0.00 | 0.00 | 34 | 1004.2 |
| 20260504234555 | 65 | 188 | 1.7 | 6.1 | 0.00 | 0.00 | 0.00 | 32 | 1004.1 |
| 20260504234055 | 65 | 184 | 3.5 | 6.1 | 0.00 | 0.00 | 0.00 | 32 | 1004.1 |
| 20260504233554 | 65 | 205 | 2.6 | 5.2 | 0.00 | 0.00 | 0.00 | 32 | 1004.1 |
| 20260504233108 | 65 | 77 | 1.7 | 7.0 | 0.00 | 0.00 | 0.00 | 33 | 1004.1 |
| 20260504232554 | 65 | 191 | 2.6 | 7.0 | 0.00 | 0.00 | 0.00 | 33 | 1004.0 |
| 20260504232053 | 65 | 205 | 0.0 | 5.2 | 0.00 | 0.00 | 0.00 | 33 | 1004.1 |
| 20260504231553 | 65 | 202 | 1.7 | 6.1 | 0.00 | 0.00 | 0.00 | 33 | 1004.1 |
| 20260504231053 | 65 | 203 | 1.7 | 6.1 | 0.00 | 0.00 | 0.00 | 32 | 1004.1 |
| 20260504230553 | 65 | 221 | 0.9 | 4.3 | 0.00 | 0.00 | 0.00 | 32 | 1004.2 |
| 20260504230053 | 66 | 244 | 0.9 | 9.6 | 0.00 | 0.00 | 0.00 | 32 | 1004.1 |
| 20260504225553 | 66 | 265 | 2.6 | 9.6 | 0.00 | 0.00 | 0.00 | 32 | 1004.0 |
| 20260504225053 | 66 | 185 | 3.5 | 9.6 | 0.00 | 0.00 | 0.00 | 30 | 1003.9 |
| 20260504224601 | 66 | 215 | 5.2 | 9.6 | 0.00 | 0.00 | 0.00 | 31 | 1003.9 |
| 20260504224052 | 66 | 164 | 1.7 | 6.1 | 0.00 | 0.00 | 0.00 | 32 | 1003.9 |
| 20260504223551 | 67 | 201 | 1.7 | 12.2 | 0.00 | 0.00 | 0.00 | 31 | 1003.9 |
| 20260504223112 | 67 | 226 | 2.6 | 12.2 | 0.00 | 0.00 | 0.00 | 30 | 1003.9 |
| 20260504222552 | 67 | 229 | 4.3 | 8.7 | 0.00 | 0.00 | 0.00 | 31 | 1004.0 |
| 20260504222052 | 67 | 213 | 1.7 | 6.1 | 0.00 | 0.00 | 0.00 | 32 | 1004.0 |
| 20260504221550 | 67 | 185 | 1.7 | 7.0 | 0.00 | 0.00 | 0.00 | 31 | 1004.0 |
| 20260504221053 | 66 | 208 | 2.6 | 7.8 | 0.00 | 0.00 | 0.00 | 31 | 1004.1 |
| 20260504220550 | 66 | 247 | 2.6 | 8.7 | 0.00 | 0.00 | 0.00 | 32 | 1004.1 |
| 20260504220050 | 66 | 196 | 2.6 | 13.0 | 0.00 | 0.00 | 0.00 | 32 | 1004.1 |
| 20260504215550 | 67 | 217 | 3.5 | 13.0 | 0.00 | 0.00 | 0.00 | 33 | 1004.1 |
| 20260504215050 | 67 | 294 | 3.5 | 9.6 | 0.00 | 0.00 | 0.00 | 31 | 1004.1 |
| 20260504214550 | 66 | 217 | 2.6 | 11.3 | 0.00 | 0.00 | 0.00 | 32 | 1004.1 |
| 20260504214050 | 66 | 199 | 3.5 | 11.3 | 0.00 | 0.00 | 0.00 | 33 | 1004.2 |
| 20260504213548 | 67 | 201 | 3.5 | 7.8 | 0.00 | 0.00 | 0.00 | 32 | 1004.1 |
| 20260504213057 | 66 | 220 | 2.6 | 8.7 | 0.00 | 0.00 | 0.00 | 34 | 1004.2 |
| 20260504212548 | 66 | 250 | 3.5 | 14.8 | 0.00 | 0.00 | 0.00 | 33 | 1004.2 |
| 20260504212047 | 66 | 184 | 6.1 | 13.9 | 0.00 | 0.00 | 0.00 | 32 | 1004.2 |
| 20260504211546 | 66 | 224 | 5.2 | 11.3 | 0.00 | 0.00 | 0.00 | 33 | 1004.2 |
| 20260504211046 | 66 | 194 | 2.6 | 12.2 | 0.00 | 0.00 | 0.00 | 33 | 1004.2 |
| 20260504210548 | 66 | 259 | 4.3 | 12.2 | 0.00 | 0.00 | 0.00 | 34 | 1004.3 |
| 20260504210046 | 66 | 241 | 3.5 | 13.0 | 0.00 | 0.00 | 0.00 | 34 | 1004.4 |
| 20260504205545 | 66 | 183 | 2.6 | 9.6 | 0.00 | 0.00 | 0.00 | 34 | 1004.4 |
| 20260504205047 | 65 | 213 | 4.3 | 10.4 | 0.00 | 0.00 | 0.00 | 35 | 1004.5 |
| 20260504204548 | 66 | 197 | 2.6 | 9.6 | 0.00 | 0.00 | 0.00 | 33 | 1004.4 |
| 20260504204044 | 67 | 234 | 3.5 | 12.2 | 0.00 | 0.00 | 0.00 | 33 | 1004.5 |
| 20260504203542 | 67 | 202 | 5.2 | 12.2 | 0.00 | 0.00 | 0.00 | 33 | 1004.6 |
| 20260504203058 | 66 | 199 | 1.7 | 14.8 | 0.00 | 0.00 | 0.00 | 35 | 1004.5 |
| 20260504202542 | 66 | 193 | 6.1 | 14.8 | 0.00 | 0.00 | 0.00 | 33 | 1004.6 |
| 20260504202046 | 66 | 212 | 2.6 | 10.4 | 0.00 | 0.00 | 0.00 | 36 | 1004.7 |
| 20260504201542 | 66 | 326 | 4.3 | 10.4 | 0.00 | 0.00 | 0.00 | 35 | 1004.7 |
| 20260504201039 | 65 | 192 | 5.2 | 10.4 | 0.00 | 0.00 | 0.00 | 35 | 1004.8 |
| 20260504200540 | 65 | 228 | 6.1 | 13.0 | 0.00 | 0.00 | 0.00 | 35 | 1004.8 |
| 20260504200039 | 65 | 216 | 2.6 | 16.5 | 0.00 | 0.00 | 0.00 | 36 | 1004.9 |
| 20260504195538 | 65 | 239 | 2.6 | 16.5 | 0.00 | 0.00 | 0.00 | 35 | 1004.9 |
| 20260504195038 | 66 | 228 | 6.1 | 13.0 | 0.00 | 0.00 | 0.00 | 35 | 1004.9 |
| 20260504194538 | 66 | 275 | 1.7 | 13.9 | 0.00 | 0.00 | 0.00 | 33 | 1004.9 |
| 20260504194037 | 67 | 255 | 3.5 | 13.9 | 0.00 | 0.00 | 0.00 | 34 | 1005.1 |
| 20260504193540 | 67 | 294 | 3.5 | 9.6 | 0.00 | 0.00 | 0.00 | 35 | 1004.9 |
| 20260504193037 | 66 | 198 | 2.6 | 9.6 | 0.00 | 0.00 | 0.00 | 39 | 1005.1 |
| 20260504192535 | 66 | 190 | 2.6 | 9.6 | 0.00 | 0.00 | 0.00 | 36 | 1005.1 |
| 20260504192035 | 66 | 241 | 2.6 | 8.7 | 0.00 | 0.00 | 0.00 | 36 | 1005.2 |
| 20260504191535 | 66 | 308 | 3.5 | 9.6 | 0.00 | 0.00 | 0.00 | 36 | 1005.3 |
| 20260504191034 | 66 | 234 | 4.3 | 9.6 | 0.00 | 0.00 | 0.00 | 36 | 1005.4 |
| 20260504190534 | 65 | 5 | 2.6 | 7.0 | 0.00 | 0.00 | 0.00 | 38 | 1005.4 |
| 20260504190037 | 65 | 200 | 2.6 | 8.7 | 0.00 | 0.00 | 0.00 | 35 | 1005.4 |
| 20260504185535 | 65 | 213 | 3.5 | 13.9 | 0.00 | 0.00 | 0.00 | 38 | 1005.4 |
| 20260504185036 | 66 | 305 | 4.3 | 13.9 | 0.00 | 0.00 | 0.00 | 34 | 1005.3 |
| 20260504184534 | 66 | 268 | 2.6 | 13.0 | 0.00 | 0.00 | 0.00 | 36 | 1005.4 |
| 20260504184033 | 66 | 257 | 7.8 | 13.0 | 0.00 | 0.00 | 0.00 | 35 | 1005.4 |
| 20260504183533 | 66 | 278 | 5.2 | 8.7 | 0.00 | 0.00 | 0.00 | 34 | 1005.4 |
| 20260504183032 | 67 | 284 | 2.6 | 16.5 | 0.00 | 0.00 | 0.00 | 36 | 1005.5 |
| 20260504182532 | 66 | 300 | 6.1 | 16.5 | 0.00 | 0.00 | 0.00 | 39 | 1005.5 |
| 20260504182031 | 66 | 186 | 5.2 | 9.6 | 0.00 | 0.00 | 0.00 | 37 | 1005.4 |
| 20260504181536 | 64 | 269 | 1.7 | 9.6 | 0.00 | 0.00 | 0.00 | 43 | 1005.5 |
| 20260504181033 | 64 | 151 | 1.7 | 9.6 | 0.00 | 0.00 | 0.00 | 37 | 1005.7 |
| 20260504180531 | 64 | 336 | 4.3 | 10.4 | 0.00 | 0.00 | 0.00 | 39 | 1005.7 |
| 20260504180028 | 64 | 202 | 3.5 | 10.4 | 0.00 | 0.00 | 0.00 | 35 | 1005.7 |
| 20260504175528 | 64 | 204 | 3.5 | 13.9 | 0.00 | 0.00 | 0.00 | 39 | 1005.7 |
| 20260504175029 | 65 | 280 | 6.1 | 13.9 | 0.00 | 0.00 | 0.00 | 35 | 1005.6 |
| 20260504174627 | 65 | 271 | 3.5 | 13.0 | 0.00 | 0.00 | 0.00 | 39 | 1005.8 |
| 20260504174027 | 65 | 186 | 4.3 | 13.0 | 0.00 | 0.00 | 0.00 | 37 | 1005.9 |
| 20260504173527 | 65 | 217 | 3.5 | 16.5 | 0.00 | 0.00 | 0.00 | 36 | 1005.8 |
| 20260504173025 | 65 | 310 | 2.6 | 15.6 | 0.00 | 0.00 | 0.00 | 38 | 1005.8 |
| 20260504172525 | 65 | 248 | 1.7 | 15.6 | 0.00 | 0.00 | 0.00 | 40 | 1005.8 |
| 20260504172025 | 64 | 306 | 3.5 | 8.7 | 0.00 | 0.00 | 0.00 | 36 | 1005.8 |
| 20260504171523 | 64 | 236 | 1.7 | 12.2 | 0.00 | 0.00 | 0.00 | 38 | 1005.8 |
| 20260504171023 | 64 | 223 | 4.3 | 14.8 | 0.00 | 0.00 | 0.00 | 38 | 1006.0 |
| 20260504170522 | 64 | 219 | 4.3 | 14.8 | 0.00 | 0.00 | 0.00 | 38 | 1006.0 |
| 20260504151001 | 58 | 290 | 3.5 | 7.8 | 0.00 | 0.00 | 0.00 | 45 | 1007.4 |
| 20260504150600 | 57 | 360 | 0.9 | 8.7 | 0.00 | 0.00 | 0.00 | 48 | 1007.3 |
| 20260504150502 | 57 | 220 | 0.9 | 8.7 | 0.00 | 0.00 | 0.00 | 45 | 1007.2 |
| 20260504150112 | 56 | 199 | 3.5 | 13.0 | 0.00 | 0.00 | 0.00 | 44 | 1007.4 |
| 20260504141047 | 52 | 360 | 4.3 | 15.6 | 0.00 | 0.00 | 0.00 | 47 | 1007.5 |
| 20260504140548 | 52 | 360 | 5.2 | 15.6 | 0.00 | 0.00 | 0.00 | 46 | 1007.4 |
| 20260504130540 | 50 | 360 | 6.1 | 13.0 | 0.00 | 0.00 | 0.00 | 49 | 1007.9 |
| 20260504110523 | 46 | 360 | 3.5 | 11.3 | 0.00 | 0.00 | 0.00 | 53 | 1008.0 |
| 20260504100515 | 45 | 360 | 2.6 | 10.4 | 0.00 | 0.00 | 0.00 | 54 | 1007.9 |